Reflectivity
-20 -20 -20 -20 -20 -20 -20 -20 -20 -20 29 26 13 -20 -16 -11 7 9 20 20 11 18
-20 -20 -20 -20 -10 -20 -13 31 -11 -15 9 -5 17 7 -20 -3 10 30 28 -19 2 -20
-20 -20 -20 22 32 31 45 34 25 -2 -2 16 -20 10 -20 -10 21 11 -18 -8 15 20
-20 -20 31 2 37 36 16 8 21 -19 6 18 7 -17 -16 -14 -18 -20 -16 10 -12 -11
25 37 33 41 50 35 -9 18 26 -12 9 -16 -20 -20 -19 -20 -13 -16 7 26 11 4
6 22 30 13 10 24 20 -4 1 11 3 -20 1 13 -2 10 17 0 -8 18 11 -16
-5 -9 -20 17 5 -0 14 12 8 -16 -15 -3 7 2 -13 6 -13 -12 -14 -8 -20 -20
-20 17 14 -16 -20 -20 -16 -12 -18 -20 -15 1 16 -2 -15 -17 -9 -14 -17 -16 -20 -20
-20 -20 -20 -20 -20 -20 -20 -20 -20 -14 3 5 -7 -20 -20 -20 -20 -20 -20 -20 -20 -20
-20 -20 -20 -20 -20 -20 -20 -20 -20 -20 -20 -20 -20 -20 -20 -20 -20 -20 -20 -20 -20 -20
-20 -20 -20 -20 -20 -20 -20 -20 -20 -20 -20 -20 -20 -20 -20 -20 -20 -20 -20 -20 -20 -20
-20 -20 -20 -20 -20 -20 -20 -20 -20 -20 -20 -20 -20 -20 -20 -20 -20 -20 -20 -20 -20 -20
-20 -20 -20 -20 -20 -20 -20 -20 -20 -20 -20 -20 -20 -20 -20 -20 -20 -20 -20 -20 -20 -20
-20 -20 -20 -20 -20 -20 -20 -20 -20 -20 -20 -20 -20 -20 -20 -20 -20 -20 -20 -20 -20 -20
Wind_Speed
16 9 10 13 7 8 9 9 9 8 6 6 7 6 6 5 7 8 7 9 6 5
17 15 13 12 11 7 5 5 9 10 8 7 7 8 8 7 6 6 4 5 6 4
15 17 9 7 7 6 6 10 10 10 10 8 8 9 8 7 8 9 6 4 5 4
12 8 6 8 5 5 5 9 10 10 9 9 9 8 8 8 9 8 7 5 4 2
7 7 8 12 9 8 8 6 9 9 9 9 9 9 10 10 7 8 6 4 2 4
10 8 9 11 8 10 9 9 9 10 10 10 10 9 8 7 8 5 6 5 4 5
13 12 10 9 10 10 9 10 9 9 9 9 9 9 8 7 6 5 4 4 4 5
12 12 10 11 11 11 10 9 10 10 9 9 8 6 8 8 6 4 3 4 5 5
11 11 11 12 11 11 10 9 9 8 9 8 5 12 10 6 5 4 2 4 4 5
12 13 12 12 11 11 10 9 8 8 8 7 6 9 8 7 3 1 2 4 5 6
13 13 12 11 11 9 9 9 8 6 6 6 3 10 8 7 5 6 6 6 6 5
12 13 13 13 13 10 9 6 5 6 10 11 8 12 12 9 6 6 5 5 5 5
12 12 13 11 11 7 6 5 7 10 10 13 10 12 13 9 4 5 3 3 3 6
10 12 11 8 5 6 9 10 8 12 9 10 9 10 16 13 4 2 1 2 3 3
Wind_Direction
207 206 200 192 186 185 187 184 170 177 184 179 158 142 131 128 135 138 140 146 156 142
215 207 200 192 182 170 155 161 160 162 154 154 143 134 136 142 131 118 115 128 142 156
202 210 192 116 108 131 157 179 161 145 133 135 136 140 132 131 134 132 137 145 166 188
206 204 114 136 128 182 150 150 137 134 138 146 144 140 129 129 134 139 149 158 169 229
67 71 110 106 154 144 143 121 115 124 136 138 139 137 137 143 151 140 149 151 169 242
108 112 113 116 124 124 127 117 123 130 134 132 133 133 127 141 147 153 147 165 199 237
118 118 118 123 121 115 114 113 113 121 128 129 129 129 136 135 134 134 175 203 224 243
113 115 116 109 103 106 109 114 119 119 116 125 126 136 136 139 151 162 189 240 262 262
111 112 113 111 110 113 112 113 115 115 121 120 121 143 146 140 145 158 241 281 308 312
128 120 120 119 120 120 117 116 118 123 128 140 136 154 145 138 121 182 339 16 17 1
128 124 128 127 119 117 122 130 138 144 137 109 119 111 115 119 74 66 49 43 39 25
130 127 129 132 137 139 145 146 154 141 114 104 84 87 83 83 68 60 41 20 0 356
132 133 135 133 141 142 142 132 98 108 106 109 104 97 103 95 95 69 17 329 325 352
135 137 139 137 134 123 114 108 103 111 129 118 119 102 96 90 97 146 181 352 352 340